Content
SEND FEEDBACK

Daily
Averages
Monthly
Summary
United States of America

EARTH CITY, MISSOURI


Home > North America > United States > Missouri
Elevation: 145 meters     Latitude: 38 46N     Longitude: 090 30W

WEATHER
 
SELECT A DAY
Number of Records: 208,206;   Date Range: 1/1/95 - 12/16/14
 
SHARE

PRINT THIS DATA

[ ← Previous Day ]
WEATHER ALMANAC - 11 JANUARY, 2013
[ Next Day → ]
[ °F ]   °C
Weather ElementAverageHighLow
Temperature13.4 °C17.8 °C (2:51 pm)10.6 °C (4:51 am)
Dewpoint7.9 °C10 °C (1:51 am)7.2 °C (6:51 am)
Humidity70.6 %86 % (1:51 am)52 % (2:51 pm)
Barometer1009.8 hPa1011.9 hPa (8:27 am)1008.5 hPa (3:51 pm)
Wind Speed20.3 km/h31.5 km/h (7:51 pm)
Wind Gust42.6 km/h (7:51 pm)
Weather ElementAverage
Visibility16.1 km
Wind DirectionSSW (195.2 °)

Weather ElementTotal
Precipitation---
Heating Degree Days4.2 (Base 18.3)
Growing Degree Days4.2 (Base 10)
Averaged from 25 records on 11 January, 2013
WEATHER CONDITIONS BREAKOUT
WIND DIRECTION BREAKOUT
WEATHER BY HOUR - 11 JANUARY, 2013
[ °F ]   °C
Local TimeTemperatureDewpointHumidityBarometerVisibilityWind DirectionWind SpeedGust SpeedPrecipitationEventsConditions
1:51 AM12.2 °C10 °C86 %1009.5 hPa16.1 kmSW (230°)16.7 km/hMostly Cloudy
2:51 AM12.2 °C9.4 °C83 %1010.2 hPa16.1 kmSW (230°)14.8 km/hMostly Cloudy
3:51 AM12.2 °C8.9 °C80 %1009.8 hPa16.1 kmWSW (240°)16.7 km/hScattered Clouds
4:51 AM10.6 °C8.3 °C86 %1010.2 hPa16.1 kmSSW (210°)16.7 km/hScattered Clouds
5:51 AM10.6 °C7.8 °C83 %1010.5 hPa16.1 kmSW (220°)16.7 km/hMostly Cloudy
6:27 AM11 °C8 °C82 %1010.5 hPa16.1 kmSW (220°)16.7 km/hScattered Clouds
6:51 AM10.6 °C7.2 °C80 %1011.2 hPa16.1 kmSW (220°)16.7 km/hMostly Cloudy
7:51 AM10.6 °C7.2 °C80 %1011.5 hPa16.1 kmSSW (210°)13 km/hMostly Cloudy
8:27 AM11 °C8 °C82 %1011.9 hPa16.1 kmSouth (190°)14.8 km/hMostly Cloudy
8:40 AM12 °C8 °C77 %1011.9 hPa16.1 kmSSW (200°)16.7 km/hMostly Cloudy
9:51 AM12.2 °C7.8 °C75 %1011.9 hPa16.1 kmSSW (210°)18.5 km/hMostly Cloudy
10:51 AM12.8 °C7.2 °C69 %1011.2 hPa16.1 kmSSW (200°)18.5 km/h33.3 km/hMostly Cloudy
11:51 AM14.4 °C7.8 °C65 %1010.2 hPa16.1 kmSouth (170°)18.5 km/hMostly Cloudy
12:51 PM16.7 °C7.8 °C56 %1009.5 hPa16.1 kmSouth (180°)25.9 km/h33.3 km/hMostly Cloudy
1:51 PM16.7 °C7.8 °C56 %1008.8 hPa16.1 kmSouth (180°)24.1 km/h37 km/hMostly Cloudy
2:51 PM17.8 °C7.8 °C52 %1008.8 hPa16.1 kmSouth (170°)24.1 km/h35.2 km/hMostly Cloudy
3:51 PM17.2 °C7.2 °C52 %1008.5 hPa16.1 kmSSE (150°)25.9 km/h37 km/hMostly Cloudy
4:51 PM16.1 °C7.8 °C58 %1008.5 hPa16.1 kmSSE (160°)24.1 km/hMostly Cloudy
5:51 PM15.6 °C7.8 °C60 %1008.8 hPa16.1 kmSouth (170°)24.1 km/h38.9 km/hMostly Cloudy
6:51 PM14.4 °C7.8 °C65 %1009.1 hPa16.1 kmSouth (180°)25.9 km/h40.7 km/hMostly Cloudy
7:51 PM13.9 °C7.8 °C67 %1009.1 hPa16.1 kmSouth (170°)31.5 km/h42.6 km/hMostly Cloudy
8:51 PM13.9 °C7.8 °C67 %1009.5 hPa16.1 kmSouth (180°)20.4 km/h35.2 km/hMostly Cloudy
9:51 PM13.9 °C7.8 °C67 %1009.5 hPa16.1 kmSSW (200°)24.1 km/hMostly Cloudy
10:51 PM13.3 °C7.8 °C69 %1009.8 hPa16.1 kmSouth (190°)16.7 km/hMostly Cloudy
11:51 PM13.9 °C7.8 °C67 %1009.5 hPa16.1 kmSSW (200°)25.9 km/h35.2 km/hMostly Cloudy
Hourly data recorded from KSTL, located 0 kilometers away from Earth City, Missouri







STORIES FROM OUR PARTNERS